STARLINK-34481, 65104

Orbit data source: Space-Track

STARLINK-34481, 65104 is a payload satellite owned by SpaceX/Seattle (US) in LEO that was launched on Mon, 04 Aug 2025 UTC via an FALCON 9 launch vehicle from the Air Force Eastern Test Range (AFETR). Payload-class satellites include a variety of spacecraft equipped with specific instruments for various scientific and technological missions. These include communications satellites like Starlink; space stations such as the ISS; scientific satellites like the Hubble; Earth observation satellites from companies like Planet Labs, Umbra, and HawkEye 360; GPS; miniature CubeSats for education and research; and military/defense satellites.

Loading next visibility...
Identifier
65104, 2025-167AC
Orbit
LEO
Country
Flag of USUS
Related business
Manufacturer
SpaceX/Seattle
Mission
Operational Commercial Communications
Bus & Motor
STARLINK V2MO, Unknown motor
Mass
575 kg wet, ~530 kg dry
Launch date (UTC)
2025-08-04 (9 months ago)
Launch vehicle
FALCON 9
Launch site
Air Force Eastern Test Range (AFETR)
Object type
Payload
Rocket body
Debris
Shape & HBR
Box + 2 Pan, 17.7 m
Radar Cross Section
36.964 m², Large (>1 m²)

Expand to show TLE details & history
Last TLE update: 13 hours ago

TLE from 13 hours ago
0 STARLINK-34481
1 65104U 25167AC  26127.24432041  .00025458  00000-0  59228-3 0  9998
2 65104  53.1592 113.3340 0001206  87.3712 272.7432 15.42171674 42455
Epoch: 2026-05-07T05:51Z
TLE epoch observation values (Epoch: 2026-05-07T05:51:49.283Z)
Latitude
-0.00002°
Longitude
160.2854°
Altitude
440.566 km
Speed
7.649 km/s
True Right ascension
07h 33m 20s
True Declination
0° 00' 00"
Sunlit
Object was in daylight at epoch
Visualization orbit readout
Latitude
Unknown
Longitude
Unknown
Altitude
Unknown
Speed
Unknown
Apparent Right ascension
Unknown
Apparent Declination
Unknown
Sunlit
N/A
Visualization observer readout
Local Sidereal Time
02:57:28
Azimuth
Unknown
Elevation
Unknown
Doppler factor
Unknown
Orbital elements
Apogee altitude
440.781 km
Perigee altitude
439.137 km
Semi-major axis
6,818.096 km
Eccentricity
0.00012
Inclination
53.1592°
RAAN
113.334°
Arg. of periapsis
87.3712°
True anomaly
272.7294°
Mean anomaly
272.7432°
Eccentric anomaly
272.7363°
Mean motion
3.85521 °/min
Orbital period
93.38 mins
BSTAR
0.00059228
Loading maneuver chart data...
Computing Atmospheric mass density...
Loading historical data...
Loading historical data...
Loading historical data...
Loading historical data...
Loading historical data...
Loading historical data...
Loading historical data...

Documentation

Showing up to 5 results
|